Location: Unspecified
(0.0000°N, 0.0000°E)
Time: 21:48:44
(UTC+00:00)

Vanguard 3 - Pass Details

Date: 15 December 2017
Orbit: 508 x 3264 km, 33.4° (Epoch: 18 January)

Event Time Altitude Azimuth Distance (km) Brightness Sun altitude
Rises 09:54:08 0° 261° (W) 5,410 11.1 52.5°
Reaches altitude 10° 09:59:41 10° 277° (W) 3,802 10.4 53.5°
Maximum altitude 10:05:34 18° 316° (NW) 2,541 9.5 54.6°
Drops below altitude 10° 10:09:51 10° 359° (N) 2,617 9.6 55.4°
Sets 10:12:46 0° 20° (NNE) 3,234 10.1 55.9°
